Location: Newark
(49.8348°N, 24.0280°E)
Time: 02:37:15
(UTC+00:00)

Explorer 7 - Pass Details

Date: 25 January 2020
Orbit: 485 x 679 km, 50.3° (Epoch: 26 February)

Event Time Altitude Azimuth Distance (km) Brightness Sun altitude
Rises 01:54:33 0° 284° (WNW) 2,564 - -40.2°
Reaches altitude 10° 01:56:43 10° 280° (W) 1,694 - -39.8°
Maximum altitude 02:00:28 56° 202° (SSW) 610 - -39.3°
Drops below altitude 10° 02:04:22 10° 124° (SE) 1,764 - -38.7°
Exits shadow 02:06:17 - 121° (ESE) 2,532 10.7 -38.4°
Sets 02:06:39 0° 120° (ESE) 2,683 10.8 -38.3°
